Location: Oberkirch
(48.5323°N, 8.0787°E)
Time: 17:17:33
(UTC+00:00)

SL-24 R/B - RUBIN 2 - Pass Details

Date: 12 February 2026
Orbit: 603 x 984 km, 64.6° (Epoch: 8 March)

Event Time Altitude Azimuth Distance (km) Brightness Sun altitude
Exits shadow 02:38:13 12° 50° (NE) 1,910 6.7 -39.8°
Drops below altitude 10° 02:38:36 10° 49° (NE) 2,053 6.9 -39.7°
Sets 02:40:52 0° 43° (NE) 2,930 7.8 -39.4°
